Location: Cabo di Oristano
(39.8500°N, 8.4333°E)
Time: 16:54:09
(UTC+00:00)

Cosmos 1302 Rocket - Pass Details

Date: 31 January 2023
Orbit: 755 x 776 km, 74.0° (Epoch: 01 April)

Event Time Altitude Azimuth Distance (km) Brightness Sun altitude
Rises 05:50:44 0° 199° (SSW) 3,193 7.2 -9.0°
Reaches altitude 10° 05:53:05 10° 200° (SSW) 2,273 6.4 -8.6°
Maximum altitude 05:58:15 83° 289° (WNW) 768 4.0 -7.6°
Drops below altitude 10° 06:03:28 10° 17° (NNE) 2,298 6.5 -6.7°
Sets 06:05:51 0° 19° (NNE) 3,231 7.3 -6.2°
